Home > Weather > Ashdod > Past weeks

Flag for Israel Weather for the Past 2 Weeks in Ashdod, Israel

Now
52 °F

Clear.


Feels Like: 49 °F
Forecast: 52 / 64 °F
Wind: 8 mph from Southeast

Location: Ben Gurion International Airport

Current Time: Feb 9, 2016 at 1:26:24 AM

Latest Report: Feb 9, 2016 at 12:50 AM


Visibility: 10 mi

Pressure: 30.24 "Hg

Humidity: 82%

Dew point: 46 °F

Location of AshdodLocation

Historic Weather in Ashdod — Graph

°F

Ashdod Temperature Yesterday

Maximum temperature yesterday: 55 °F (at 9:50 AM)
Minimum temperature yesterday: 50 °F (at 12:20 AM)
Average temperature yesterday: 53 °F

High & Low Weather Summary for the Past Weeks

 TemperatureHumidityPressure
High75 °F (Feb 4, 2:20 PM)94% (Feb 3, 6:50 AM)30.45 "Hg (Feb 3, 6:50 AM)
Low34 °F (Jan 28, 5:50 AM)21% (Feb 4, 2:20 PM)29.92 "Hg (Feb 5, 1:20 PM)
Average52 °F72%30.20 "Hg
* Reported Jan 25 12:20 AM — Feb 9 12:20 AM, Ashdod, Weather by CustomWeather, © 2016

Note: Actual official high and low records may vary slightly from our data, if they occured in-between our weather recording intervals... More about our weather records

Advertising

Ashdod Weather History for the Previous 24 Hours

 ConditionsComfort  
Time TempWeatherWind HumidityBarometerVisibility
12:20 AM
Tue, Feb 9
52 °FClear.3 mph82%30.24 "Hg10 mi
11:50 PM
Mon, Feb 8
52 °FClear.5 mph88%30.27 "Hg10 mi
11:20 PM54 °FClear.5 mph82%30.27 "Hg10 mi
10:50 PM54 °FClear.3 mph88%30.27 "Hg10 mi
10:20 PM54 °FPassing clouds.5 mph88%30.27 "HgN/A
9:50 PM54 °FPassing clouds.5 mph88%30.27 "HgN/A
9:20 PM54 °FPassing clouds.5 mph94%30.27 "HgN/A
8:50 PM54 °FPassing clouds.7 mph88%30.24 "HgN/A
8:20 PM54 °FPassing clouds.5 mph94%30.24 "HgN/A
7:50 PM54 °FPassing clouds.7 mph88%30.24 "HgN/A
7:20 PM54 °FPassing clouds.6 mph94%30.24 "HgN/A
6:50 PM54 °FLight rain. Partly cloudy.2 mph94%30.24 "HgN/A
6:20 PM55 °FPartly cloudy.3 mph88%30.24 "HgN/A
5:50 PM55 °FOvercast.2 mph82%30.24 "HgN/A
5:20 PM55 °FOvercast.3 mph82%30.24 "HgN/A
4:50 PM55 °FOvercast.7 mph82%30.21 "HgN/A
4:20 PM55 °FOvercast.5 mph82%30.21 "HgN/A
3:50 PM55 °FPartly sunny.7 mph82%30.21 "HgN/A
3:20 PM55 °FLight rain. Broken clouds.7 mph88%30.21 "HgN/A
2:50 PM55 °FPartly sunny.6 mph82%30.21 "HgN/A
2:20 PM55 °FPartly sunny.5 mph82%30.21 "Hg5 mi
1:50 PM55 °FLight rain. Broken clouds.5 mph82%30.21 "Hg5 mi
1:20 PM55 °FPartly sunny.7 mph82%30.21 "HgN/A
12:50 PM55 °FLight rain. Partly sunny.6 mph82%30.21 "HgN/A
12:20 PM55 °FPartly sunny.7 mph77%30.21 "HgN/A
11:50 AM55 °FPartly sunny.9 mph77%30.21 "HgN/A
11:20 AM54 °FPartly sunny.10 mph82%30.24 "Hg6 mi
10:50 AM54 °FPartly sunny.12 mph82%30.24 "Hg5 mi
10:20 AM54 °FLight rain. Partly sunny.15 mph88%30.24 "HgN/A
9:50 AM55 °FPassing clouds.12 mph82%30.24 "HgN/A
9:20 AM54 °FScattered clouds.13 mph82%30.21 "HgN/A
8:50 AM52 °FPartly sunny.10 mph88%30.21 "HgN/A
8:20 AM52 °FPartly sunny.9 mph88%30.21 "HgN/A
7:50 AM50 °FPartly sunny.9 mph94%30.18 "HgN/A
7:20 AM50 °FPartly sunny.7 mph94%30.18 "HgN/A
6:50 AM50 °FPartly sunny.10 mph94%30.18 "HgN/A
6:20 AM52 °FPassing clouds.8 mph88%30.18 "HgN/A
5:20 AM52 °FLight rain. Passing clouds.7 mph88%30.15 "HgN/A
4:50 AM50 °FPassing clouds.6 mph94%30.15 "HgN/A
3:50 AM50 °FPassing clouds.3 mph94%30.15 "HgN/A
3:20 AM50 °FPassing clouds.3 mph88%30.12 "HgN/A
2:50 AM50 °FPassing clouds.5 mph94%30.15 "HgN/A
2:20 AM50 °FPassing clouds.5 mph94%30.15 "HgN/A
1:50 AM50 °FPassing clouds.7 mph94%30.15 "HgN/A
1:20 AM50 °FPassing clouds.6 mph94%30.15 "HgN/A
Weather by CustomWeather, © 2016

See weather overviewHow to use our weather pages